Weather History for Cahokia, IL

Change the Weather History Date:

Tuesday, January 28, 2014

  Actual Average Record
Temperature  
Mean Temperature 10 °F -  
Max Temperature 18 °F 37 °F 71 °F (2002)
Min Temperature 3 °F 25 °F 1 °F (1948)
Degree Days  
Heating Degree Days 54    
Moisture  
Dew Point -5 °F    
Average Humidity 53    
Maximum Humidity 73    
Minimum Humidity 35    
Precipitation  
Precipitation 0.00 in - - ()
Sea Level Pressure  
Sea Level Pressure 30.50 in    
Wind  
Wind Speed 6 mph (NNW)    
Max Wind Speed 10 mph    
Max Gust Speed -    
Visibility 10 miles    
Events      
Averages and records for this station are not official NWS values.
T = Trace of Precipitation, MM = Missing Value Source: NWS Daily Summary

Daily Weather History Graph

Daily Weather History Graph

Search for Another Location

Airport:

Trip Planner

Search our weather history database for the weather conditions in past years. The results will help you decide how hot, cold, wet, or windy it might be!

Date:

Astronomy

Jan. 28, 2014 Rise Set
Actual Time 7:09 AM CST 5:18 PM CST
Civil Twilight 6:41 AM CST 5:46 PM CST
Nautical Twilight 6:09 AM CST 6:18 PM CST
Astronomical Twilight 5:37 AM CST 6:49 PM CST
Moon 4:50 AM CST 3:08 PM CST
Length of Visible Light 11h 05m
Length of Day
10h 08m
Waning Crescent, 7% of the Moon is Illuminated
Jan 28
Waning Crescent
Jan 30
New
Feb 6
First Quarter
Feb 14
Full
Feb 22
Last Quarter

Hourly Weather History & Observations

Time (CST) Temp. Windchill Dew Point Humidity Pressure Visibility Wind Dir Wind Speed Gust Speed Precip Events Conditions
12:53 AM 6.1 °F -7.8 °F -6.0 °F 58% 30.55 in 10.0 mi North 9.2 mph - N/A   Clear
1:53 AM 6.1 °F -5.6 °F -6.0 °F 58% 30.55 in 10.0 mi NNE 6.9 mph - N/A   Clear
2:53 AM 5.0 °F -6.9 °F -6.0 °F 61% 30.56 in 10.0 mi NNE 6.9 mph - N/A   Clear
3:53 AM 3.9 °F -3.4 °F -6.0 °F 64% 30.55 in 10.0 mi ENE 3.5 mph - N/A   Clear
4:53 AM 3.9 °F -5.3 °F -6.0 °F 64% 30.55 in 10.0 mi NNE 4.6 mph - N/A   Clear
5:53 AM 3.9 °F - -6.0 °F 64% 30.55 in 10.0 mi Calm Calm - N/A   Clear
6:53 AM 3.9 °F -3.4 °F -7.1 °F 60% 30.56 in 10.0 mi ENE 3.5 mph - N/A   Clear
7:53 AM 3.9 °F -3.4 °F -6.0 °F 64% 30.56 in 10.0 mi ENE 3.5 mph - N/A   Clear
8:53 AM 7.0 °F 0.1 °F -6.0 °F 55% 30.59 in 10.0 mi North 3.5 mph - N/A   Clear
9:53 AM 9.0 °F -0.9 °F -8.0 °F 46% 30.58 in 10.0 mi WNW 5.8 mph - N/A   Clear
10:53 AM 12.0 °F 0.5 °F -6.0 °F 44% 30.57 in 10.0 mi WNW 8.1 mph - N/A   Clear
11:53 AM 14.0 °F 2.9 °F -6.0 °F 41% 30.53 in 10.0 mi NNW 8.1 mph - N/A   Clear
12:53 PM 15.1 °F 3.3 °F -7.1 °F 37% 30.48 in 10.0 mi NW 9.2 mph - N/A   Clear
1:53 PM 16.0 °F 10.4 °F -6.0 °F 38% 30.45 in 10.0 mi NW 3.5 mph - N/A   Clear
2:53 PM 18.0 °F 12.7 °F -6.0 °F 35% 30.43 in 10.0 mi WNW 3.5 mph - N/A   Clear
3:53 PM 18.0 °F 6.1 °F -6.0 °F 35% 30.43 in 10.0 mi WNW 10.4 mph - N/A   Clear
4:53 PM 18.0 °F 8.7 °F -5.1 °F 36% 30.43 in 10.0 mi WNW 6.9 mph - N/A   Clear
5:53 PM 16.0 °F 8.8 °F -4.0 °F 41% 30.42 in 10.0 mi WNW 4.6 mph - N/A   Clear
6:53 PM 14.0 °F - -2.9 °F 47% 30.43 in 10.0 mi Calm Calm - N/A   Clear
7:53 PM 14.0 °F 6.5 °F -4.0 °F 45% 30.43 in 10.0 mi WNW 4.6 mph - N/A   Clear
8:53 PM 10.0 °F - -0.9 °F 61% 30.43 in 10.0 mi Calm Calm - N/A   Clear
9:53 PM 7.0 °F - -0.0 °F 73% 30.43 in 10.0 mi Calm Calm - N/A   Clear
10:53 PM 6.1 °F -0.9 °F -0.9 °F 73% 30.43 in 10.0 mi South 3.5 mph - N/A   Clear
11:53 PM 6.1 °F - -0.9 °F 73% 30.42 in 10.0 mi Calm Calm - N/A   Clear